Regional Weather Roundup
Issued by NWS Charleston, SC

Current Version | Previous Version | Graphics & Text | Print | Product List | Glossary On
Versions: 1 2 3 4 5 6 7 8 9 10 11 12 13 14 15 16 17 18 19 20 21 22 23 24 25 26 27 28 29 30 31 32 33 34 35 36 37 38 39 40 41 42 43 44 45 46 47 48 49 50
000
ASUS42 KCHS 220110
RWRCHS

REGIONAL WEATHER ROUNDUP
NATIONAL WEATHER SERVICE CHARLESTON SC
800 PM EST SUN DEC 21 2014

NOTE: "FAIR" INDICATES FEW OR NO CLOUDS BELOW 12,000 FEET WITH NO
SIGNIFICANT WEATHER AND/OR OBSTRUCTIONS TO VISIBILITY.

NOT ALL STATIONS ARE QUALITY CONTROLLED BY THE NATIONAL
WEATHER SERVICE. USE DATA WITH CAUTION...ESPECIALLY
DEWPOINT OBSERVATIONS.

SCZ027-030-031-034>040-042>050-220200-
...SOUTHEAST SOUTH CAROLINA...

CITY           SKY/WX    TMP DP  RH WIND       PRES   REMARKS
N CHARLESTON   CLOUDY    48  43  82 NE9       30.14F
WATERFRONT PRK NOT AVBL
MOUNT PLEASANT CLOUDY    48  45  87 N5        30.15S
PINOPOLIS        N/A     48  45  87 NE9       30.09S
MONCKS CORNER  CLOUDY    48  43  81 NE6       30.16R
SUMMERVILLE    CLOUDY    46  45  93 NE3       30.16F
BEAUFORT MCAS  CLOUDY    48  44  86 NE13      30.12F
BEAUFORT ARPT  LGT RAIN  48  46  93 NE13      30.11F
HILTON HEAD IS RAIN      48  46  93 NE9       30.10F
WALTERBORO     DRIZZLE   46 N/A N/A NE6       30.15F
ALLENDALE      CLOUDY    48  45  87 CALM      30.14R FOG

...SOUTHERN MIDLANDS AND PEE DEE...

CITY           SKY/WX    TMP DP  RH WIND       PRES   REMARKS
GEORGETOWN     NOT AVBL
KINGSTREE      NOT AVBL
ORANGEBURG     CLOUDY    50  42  74 NE3       30.15F
BARNWELL       DRIZZLE   48  46  93 NE5       30.16S
AIKEN          RAIN      46  46 100 NE8       30.18S
MANNING        NOT AVBL
COLUMBIA       LGT RAIN  50  43  77 E7        30.16F
SUMTER         CLOUDY    50  40  68 NE9       30.15F
FLORENCE       CLOUDY    50  39  66 E12       30.20R
MYRTLE BEACH   CLOUDY    46  41  81 NE17      30.20F
N MYRTLE BEACH LGT RAIN  46  42  86 NE14      30.18F

$$

GAZ063-065-086>088-099>101-113>116-118-119-134>141-150-220200-
...SOUTHEAST GEORGIA...

CITY           SKY/WX    TMP DP  RH WIND       PRES   REMARKS
SAVANNAH ARPT  RAIN      47  45  93 NE7       30.11S FOG
HUNTER AAF     HVY RAIN  48  48 100 NE6       30.08R FOG
FORT STEWART   HVY RAIN  48  46  93 NE5       30.11R FOG
STATESBORO     DRIZZLE   46  46 100 NE6       30.13R
SYLVANIA       HVY RAIN  46  46 100 E7        30.13F
CLAXTON        DRIZZLE   46  46 100 NE3       30.13S

...CSRA...CENTRAL AND FAR SOUTHEAST GEORGIA...

CITY           SKY/WX    TMP DP  RH WIND       PRES   REMARKS
THOMSON        CLOUDY    50  49  95 NE3       30.19S
AUGUSTA-BUSH   CLOUDY    49  46  90 NE5       30.15F
AUGUSTA-DANIEL LGT RAIN  50  45  83 NE8       30.15S
SWAINSBORO     DRIZZLE   48  48 100 NE5       30.14R
VIDALIA        LGT RAIN  46  46 100 NE7       30.12S
EASTMAN        DRIZZLE   48  48 100 NE7       30.14F
HAZLEHURST     LGT RAIN  49  49 100 NE5       30.11S
ALMA           CLOUDY    50  48  93 E5        30.10S
WAYCROSS       LGT RAIN  54  54  98 NE5       30.10S
JESUP          RAIN      52  50  93 NE3       30.12R
BAXLEY         CLOUDY    50  48  93 NE5       30.11S
BRUNSWICK      CLOUDY    54  52  94 NE5       30.11R
SAINT SIMONS   LGT RAIN  56  54  93 N10       30.08S

$$

SCZ027-028-034-036>038-045-046-048>050-GAZ119-141-220200-
...LAKE AND SUPPLEMENTAL COASTAL OBSERVATIONS...

STATION/POSITION TIME  TEMP    WIND        PRES    WAVE   SWELL
                       AIR SEA DIR/SP/G            HT/PER HT/PER/DIR
                 (UTC) (F)     (DEG/KT/KT) (MB)    (FT/S) (FT/S/D)
UPR LAKE MARION  NOT AVBL
WINYAH BAY       0000   48      20/  6     1021.0S
LAKE MURRAY      0000   50      90/  5/  8 1021.3R
ACE BASIN NERRS  0000   46      30/  3     1020.0S
FORT PULASKI     0100   49 56   40/ 13/ 17 1019.5F
SAPELO ISLAND    0000   53      30/  9     1019.0S

$$

ANZ835-935-AMZ111-154-330-350-352-354-370-450-454-472-220200-
...C-MAN AND BUOY OBSERVATIONS...

STATION/POSITION TIME  TEMP    WIND        PRES    WAVE   SWELL
                       AIR SEA DIR/SP/G            HT/PER HT/PER/DIR
                 (UTC) (F)     (DEG/KT/KT) (MB)    (FT/S) (FT/S/D)
BUOY 41004       0100   64 69   30/ 19/ 23 1018.6F   7/ 7   2/14
BUOY 41008       0100   58 59   40/ 17/ 21 1018.1R   6/ 6
FOLLY BEACH CMAN 0000   50      30/ 18/ 20 1021.2R
CAPERS NEARSHORE 0000   51      50/ 21/ 23   N/A
FRIPP NEARSHORE  NOT AVBL


STATION/POSITION TIME  TEMP    WIND        PRES    WAVE   SWELL
                       AIR SEA DIR/SP/G            HT/PER HT/PER/DIR
                 (UTC) (F)     (DEG/KT/KT) (MB)    (FT/S) (FT/S/D)
5E ST. MARYS GA  0100      61                N/A     5/ 5
FRYING PAN BUOY  0100   58 71   40/ 23/ 27 1020.9R   7/ 8
BUOY 41025       0100   56                 1022.6F   4/ 5
CAPE LOOKOUT NC  0000   48      30/ 19/ 24 1022.8F
BUOY 41002       0025   70 71   80/ 17/ 19 1018.9R   6/ 6   2/ 80/10
BUOY 41010       0100   75 77  170/ 12/ 14 1018.2F   3/ 8   3/ 10/ 8
ST AUGUSTINE FL  0100   61     340/  5/  6 1018.1R


$$


USA.gov is the U.S. government's official web portal to all federal, state and local government web resources and services.